Flag Weather past 2 weeks in Kenema, Sierra Leone

Now
77 °F

Passing clouds.


Feels Like: 78 °F
Forecast: 69 / 87 °F
Wind: No wind

Location: Roberts Field

Current Time: Nov 22, 2014 at 3:26:41 AM

Latest Report: Nov 22, 2014 at 2:30 AM


Visibility: N/A

Pressure: 29.89 "Hg

Humidity: 94%

Dew point: 75 °F

Location of KenemaLocation

Historic Weather in Kenema — Graph

°F

Kenema temperature yesterday

Maximum temperature yesterday: 88 °F (at 1:00 PM)
Minimum temperature yesterday: 73 °F (at 3:00 AM)
Average temperature yesterday: 79 °F

Past Weeks' High & Low Weather Summary

 TemperatureHumidityPressure
High90 °F (Nov 7, 2:00 PM)100% (Nov 7, 7:30 AM)29.95 "Hg (Nov 7, 7:30 AM)
Low72 °F (Nov 18, 6:30 AM)63% (Nov 7, 2:00 PM)29.77 "Hg (Nov 10, 3:30 PM)
Average80 °F87%29.87 "Hg
* Reported Nov 7 5:00 AM — Nov 22 2:00 AM, Kenema, Weather by CustomWeather, © 2014

Note: Actual official high and low records may vary slightly from our data, if they occured in-between our weather recording intervals... More about our weather records

Advertising

Kenema weather history for previous 24 hours

 ConditionsComfort  
Time TempWeatherWind HumidityBarometerVisibility
2:00 AM
Nov 22
77 °FPassing clouds.No wind94%29.89 "HgN/A
1:30 AM77 °FPassing clouds.No wind94%29.89 "HgN/A
1:00 AM77 °FPassing clouds.No wind94%29.92 "HgN/A
12:30 AM77 °FPassing clouds.No wind94%29.92 "HgN/A
12:00 AM77 °FPassing clouds.No wind94%29.92 "HgN/A
11:30 PM
Nov 21
77 °FPassing clouds.No wind94%29.92 "HgN/A
11:00 PM77 °FPassing clouds.No wind94%29.92 "HgN/A
10:30 PM77 °FPassing clouds.No wind94%29.92 "HgN/A
10:00 PM77 °FPassing clouds.No wind94%29.92 "HgN/A
9:30 PM77 °FPassing clouds.No wind94%29.92 "HgN/A
9:00 PM79 °FPassing clouds.No wind89%29.92 "HgN/A
8:30 PM79 °FPassing clouds.No wind89%29.89 "HgN/A
8:00 PM79 °FPassing clouds.No wind89%29.89 "HgN/A
7:30 PM79 °FPassing clouds.3 mph89%29.86 "HgN/A
7:00 PM79 °FScattered clouds.No wind89%29.86 "HgN/A
6:30 PM81 °FScattered clouds.5 mph84%29.83 "HgN/A
6:00 PM82 °FPartly sunny.7 mph84%29.83 "HgN/A
5:30 PM82 °FPartly sunny.12 mph84%29.83 "HgN/A
5:00 PM82 °FPartly sunny.10 mph84%29.80 "HgN/A
3:30 PM84 °FPartly sunny.8 mph79%29.80 "HgN/A
3:00 PM84 °FScattered clouds.10 mph79%29.83 "HgN/A
2:30 PM84 °FPartly sunny.8 mph79%29.83 "HgN/A
2:00 PM84 °FPartly sunny.12 mph79%29.83 "HgN/A
1:30 PM82 °FRain showers. Partly sunny.7 mph84%29.86 "HgN/A
1:00 PM88 °FPartly sunny.No wind70%29.86 "HgN/A
12:30 PM86 °FPartly sunny.No wind75%29.86 "HgN/A
12:00 PM86 °FPartly sunny.5 mph75%29.89 "HgN/A
11:30 AM86 °FPartly sunny.5 mph70%29.89 "HgN/A
11:00 AM84 °FPartly sunny.3 mph79%29.89 "HgN/A
10:30 AM82 °FPartly sunny.7 mph84%29.92 "HgN/A
10:00 AM82 °FPartly sunny.3 mph84%29.92 "HgN/A
9:30 AM81 °FScattered clouds.3 mph89%29.92 "HgN/A
9:00 AM81 °FScattered clouds.7 mph89%29.92 "HgN/A
8:30 AM79 °FScattered clouds.7 mph94%29.92 "HgN/A
8:00 AM77 °FScattered clouds.6 mph94%29.89 "HgN/A
7:30 AM75 °FPassing clouds.No wind94%29.89 "HgN/A
7:00 AM73 °FPassing clouds.No wind94%29.89 "HgN/A
6:30 AM73 °FPassing clouds.No wind94%29.89 "Hg6 mi
6:00 AM75 °FPassing clouds.No wind94%29.86 "Hg5 mi
5:00 AM73 °FPassing clouds.No wind94%29.86 "Hg5 mi
4:30 AM73 °FPassing clouds.3 mph94%29.86 "Hg5 mi
4:00 AM73 °FPassing clouds.6 mph94%29.83 "Hg5 mi
3:30 AM73 °FPassing clouds.No wind94%29.86 "Hg5 mi
3:00 AM73 °FPassing clouds.No wind94%29.86 "Hg5 mi
Weather by CustomWeather, © 2014

See weather overviewHow to use our weather pages